AQUA (27424 NORAD) Tracking and Keplerian Element Data

This shows tracking and keplerian element data for the satellite.

Feedback or suggestion? Click here.




ElementValue
Catalog27424
NameAQUA
Epoch Orbit88407
Epoch Day351.14995554
Epoch Year2018
RAAN289.6108
Inclination98.2149
Eccentricity6.74E-05
Argument of Perigee197.8759
Mean Anonmoly223.0864
Mean Motion14.57105991
Decay Rate9.1E-07
L11 27424U 02022A 18351.14995554 .00000091 00000-0 30162-4 0 9991
L22 27424 98.2149 289.6108 0000674 197.8759 223.0864 14.57105991884075

Live tracking and technical data element details for AQUA (NORAD 27424). AQUA can be tracked NOW for your location showing map with azimuth and elevation plus other details from your city location.

Track the satellite on the map from your city or location and see movement details for azimuth, elevation, latitude, longitude, range, height, and movement on the map or in text.







IsCatalogInMostPopularTable: catalog: 27424, numindb: 42
Update: records affected: 1



GetName: 27424 AQUA

Hit Count: updated at: Tue, 18 Dec 2018 22:08:04 GMT